Regional Weather Roundup
Issued by NWS

Home | Current Version | Previous Version | Graphics & Text | Print | Product List | Glossary On
Versions: 1 2 3 4 5 6 7 8 9 10 11 12 13 14 15 16 17 18 19 20 21 22 23 24 25 26 27 28 29 30 31 32 33 34 35 36 37 38 39 40 41 42 43 44 45 46 47 48 49 50
905
ASUS43 KDTX 260601
RWRMI
MICHIGAN HOURLY REGIONAL WEATHER ROUNDUP
NATIONAL WEATHER SERVICE DETROIT/PONTIAC MI
200 AM EDT TUE JUL 26 2016

NOTE: "FAIR" INDICATES FEW OR NO CLOUDS BELOW 12,000 FEET WITH NO
SIGNIFICANT WEATHER AND/OR OBSTRUCTION TO VISIBILITY.

MIZ047>049-052>055-059>063-066>070-074>076-081>083-260700-
SOUTHEAST LOWER MICHIGAN

CITY           SKY/WX    TMP DP  RH WIND       PRES   REMARKS
ADRIAN         CLOUDY    69  64  84 N5        30.02R
6HR MIN TEMP:  69; 6HR MAX TEMP:  84;

ALMA           CLEAR     62  62  99 W3        30.02S
ANN ARBOR      PTCLDY    67  61  81 W3        30.01R
BAD AXE        CLEAR     58  57  97 CALM      30.01S
CARO           CLEAR     65  61  88 CALM      30.00S
DETROIT CITY   CLOUDY    75  61  61 N8        30.00R
6HR MIN TEMP:  75; 6HR MAX TEMP:  87;

DETROIT        CLOUDY    72  60  66 NW5       30.00R
6HR MIN TEMP:  72; 6HR MAX TEMP:  87;

FLINT          CLEAR     69  60  73 SW5       30.02R
6HR MIN TEMP:  67; 6HR MAX TEMP:  87;

GROSSE ILE     MOCLDY    73  62  66 NW5       29.98R
6HR MIN TEMP:  73; 6HR MAX TEMP:  86;

HILLSDALE      PTCLDY    64  61  89 CALM      30.03S
6HR MIN TEMP:  64; 6HR MAX TEMP:  84;

HOWELL         CLEAR     67  61  80 CALM      30.02S
6HR MIN TEMP:  67; 6HR MAX TEMP:  82;


CITY           SKY/WX    TMP DP  RH WIND       PRES   REMARKS
JACKSON        CLOUDY    66  64  93 W3        30.04R
6HR MIN TEMP:  66; 6HR MAX TEMP:  81;

LAMBERTVILLE   PTCLDY    71  66  84 CALM      30.00S
6HR MIN TEMP:  71; 6HR MAX TEMP:  85;

LANSING        CLEAR     65  60  84 CALM      30.03R
6HR MIN TEMP:  65; 6HR MAX TEMP:  82;

LAPEER         FAIR      62  60  93 CALM      30.01R
6HR MIN TEMP:  61; 6HR MAX TEMP:  82;

MASON          CLEAR     67  62  84 NW5       30.03S
MONROE         PTCLDY    68  65  91 NW7       29.99S
6HR MIN TEMP:  68; 6HR MAX TEMP:  83;

MT. CLEMENS    CLEAR     67  62  85 N3        29.98R
6HR MIN TEMP:  67; 6HR MAX TEMP:  85;

PONTIAC        CLEAR     71  61  70 NW7       30.00S
6HR MIN TEMP:  71; 6HR MAX TEMP:  84;

PORT HURON     CLEAR     63  63 100 CALM      29.99S
TRI CITIES     CLEAR     69  62  78 NW5       30.01S
6HR MIN TEMP:  68; 6HR MAX TEMP:  83;

MIDLAND        FAIR      63  61  94 CALM      30.01R
TROY           CLOUDY    75  58  54 NW6       30.02R
SAGINAW HB     CLEAR     64  59  82 NW5       30.00R
$$
MIZ043>046-050>051-056>058-064>065-071>073-077>080-260700-
SOUTHWEST LOWER MICHIGAN

CITY           SKY/WX    TMP DP  RH WIND       PRES   REMARKS
BATTLE CREEK   CLEAR     64  64 100 SW5       30.04R
6HR MIN TEMP:  64; 6HR MAX TEMP:  78;

BENTON HARBOR  CLOUDY    65  63  93 CALM      30.03R
6HR MIN TEMP:  65; 6HR MAX TEMP:  79;

BIG RAPIDS     CLEAR     63  63 100 CALM      30.03S
6HR MIN TEMP:  62; 6HR MAX TEMP:  78;

COLDWATER      CLOUDY    65  64  99 CALM      30.04R
6HR MIN TEMP:  64; 6HR MAX TEMP:  80;

FREMONT        FAIR      64  64 100 CALM      30.02F
HOLLAND        CLEAR     66  64  93 CALM      30.04S
6HR MIN TEMP:  65; 6HR MAX TEMP:  77;

GRAND RAPIDS   CLEAR     69  62  78 W6        30.03S
6HR MIN TEMP:  68; 6HR MAX TEMP:  81;

IONIA          FAIR      65  60  82 W3        30.02S
6HR MIN TEMP:  65; 6HR MAX TEMP:  80;

KALAMAZOO      CLEAR     65  61  87 CALM      30.04R
6HR MIN TEMP:  65; 6HR MAX TEMP:  79;

LUDINGTON      CLEAR     71  68  89 W5        30.01S
6HR MIN TEMP:  69; 6HR MAX TEMP:  76;

MARSHALL       CLEAR     65  63  93 CALM      30.03S
6HR MIN TEMP:  65; 6HR MAX TEMP:  81;

MOUNT PLEASANT CLEAR     63  62  94 CALM      30.01S
6HR MIN TEMP:  63; 6HR MAX TEMP:  81;

MUSKEGON       CLEAR     67  65  93 CALM      30.02F
6HR MIN TEMP:  65; 6HR MAX TEMP:  78;

SOUTH HAVEN    CLEAR     64  63  94 CALM      30.03S
$$
MIZ016>042-260700-
NORTHERN LOWER MICHIGAN

CITY           SKY/WX    TMP DP  RH WIND       PRES   REMARKS
ALPENA         CLEAR     64  56  75 SW3       30.00S
6HR MIN TEMP:  63; 6HR MAX TEMP:  77;

BEAVER ISLAND  CLEAR     59  58  96 CALM      30.00S
6HR MIN TEMP:  58; 6HR MAX TEMP:  74;

BELLAIRE       MOCLDY    60  58  96 CALM      30.02S
6HR MIN TEMP:  59; 6HR MAX TEMP:  76;

CADILLAC       CLEAR     60  56  88 CALM      30.04S
CHARLEVOIX     MOCLDY    67  62  83 S3        30.03S
6HR MIN TEMP:  63; 6HR MAX TEMP:  74;

FRANKFORT      CLEAR     66  64  91 CALM      30.01R
GAYLORD        PTCLDY    62  56  80 W5        30.04R
6HR MIN TEMP:  60; 6HR MAX TEMP:  75;

GRAYLING       CLEAR     55  54  97 CALM      30.04S
HARBOR SPRINGS PTCLDY    61  59  92 CALM      30.01R
HOUGHTON LAKE  CLEAR     59  58  96 CALM      30.04S
6HR MIN TEMP:  59; 6HR MAX TEMP:  78;

MANISTEE       PTCLDY    62  62 100 E3        30.01R
OSCODA         CLEAR     63  56  80 W6        29.99F
6HR MIN TEMP:  62; 6HR MAX TEMP:  80;

ROGERS CITY    CLEAR     63  55  77 SW5       30.00S
TRAVERSE CITY  CLEAR     65  60  84 CALM      30.01R
6HR MIN TEMP:  65; 6HR MAX TEMP:  81;

$$
MIZ007>008-015-260700-
EASTERN UPPER MICHIGAN

CITY           SKY/WX    TMP DP  RH WIND       PRES   REMARKS
KINROSS        CLEAR     60  57  89 W3        29.98S
6HR MIN TEMP:  59; 6HR MAX TEMP:  72;

MACKINAC ISLAN CLEAR     67  62  84 SW8       29.98S
6HR MIN TEMP:  66; 6HR MAX TEMP:  71;

S. S. MARIE    CLEAR     61  58  90 CALM      29.96S
6HR MIN TEMP:  60; 6HR MAX TEMP:  72;

$$
MIZ004>006-011>014-085-260700-
CENTRAL UPPER MICHIGAN

CITY           SKY/WX    TMP DP  RH WIND       PRES   REMARKS
ESCANABA       CLEAR     63  59  88 CALM      29.98S
6HR MIN TEMP:  61; 6HR MAX TEMP:  82;

MENOMINEE      CLEAR    N/A N/A N/A CALM      30.02R
SAWYER-GWINN   CLEAR     61  56  84 CALM      30.01S
6HR MIN TEMP:  60; 6HR MAX TEMP:  78;

$$
MIZ001>003-009>011-084-260700-
WESTERN UPPER MICHIGAN

CITY           SKY/WX    TMP DP  RH WIND       PRES   REMARKS
IRON MOUNTAIN  CLEAR     59  54  83 CALM      30.01S
6HR MIN TEMP:  59; 6HR MAX TEMP:  80;

HOUGHTON       CLEAR     65  57  75 W7        29.97S
6HR MIN TEMP:  64; 6HR MAX TEMP:  76;

COPPER HARBOR    N/A     72  57  59 W6        29.93S
6HR MIN TEMP:  72; 6HR MAX TEMP:  77;

IRONWOOD       CLEAR     63  63 100 W5        30.00S
6HR MIN TEMP:  61; 6HR MAX TEMP:  77;

$$

ABBREVIATIONS USED IN REMARKS
   TC - TEMPERATURE IN CELSIUS
  WCI - WIND CHILL INDEX
   HX - HEAT INDEX
  VSB - VISIBILITY





USA.gov is the U.S. government's official web portal to all federal, state and local government web resources and services.